Fremont, MI

2:05 AM EDT on October 23, 2019 (GMT -0400)
Fremont

Weather History for KFFX - September, 2019

Change the Weather History Date:

Friday, September 20, 2019

  Actual Average (KMKG) Record (KMKG)
Temperature  
Mean Temperature 71 °F -  
Max Temperature 83 °F 68 °F 90 °F (2017)
Min Temperature 59 °F 50 °F 33 °F (1956)
Cooling Degree Days 6    
Growing Degree Days 21 (Base 50)    
Moisture  
Dew Point 56 °F    
Average Humidity 63    
Maximum Humidity 96    
Minimum Humidity 32    
Precipitation  
Precipitation 0.00 in - - ()
Sea Level Pressure  
Sea Level Pressure 30.12 in    
Wind  
Wind Speed 2 mph ()    
Max Wind Speed 9 mph    
Max Gust Speed -    
Visibility 9.6 miles    
Events      
Averages and records for this station are not official NWS values.
T = Trace of Precipitation, MM = Missing Value Source: Averaged Metar Reports

Daily Weather History Graph

Daily Weather History Graph

Search for Another Location

Airport or City:

Astronomy

Sep. 20, 2019 Rise Set
Actual Time 7:28 AM EDT 7:45 PM EDT
Civil Twilight 7:00 AM EDT 8:13 PM EDT
Nautical Twilight 6:26 AM EDT 8:47 PM EDT
Astronomical Twilight 5:52 AM EDT 9:21 PM EDT
Moon 11:24 PM EDT (9/20) 1:43 PM EDT (9/20)
Length of Visible Light 13h 13m
Length of Day
12h 16m
Waning Gibbous, 65% of the Moon is Illuminated
Sep 20
Waning Gibbous
Sep 21
Last Quarter
Sep 28
New
Oct 5
First Quarter
Oct 13
Full

Hourly Weather History & Observations

Time (EDT) Temp. Heat Index Dew Point Humidity Pressure Visibility Wind Dir Wind Speed Gust Speed Precip Events Conditions
12:15 AM 69.8 °F - 55.4 °F 60% 30.09 in 10.0 mi ESE 3.5 mph - N/A   Overcast
12:35 AM 69.3 °F - 55.4 °F 61% 30.09 in 10.0 mi Calm Calm - N/A   Overcast
12:59 AM 69.6 °F - 54.3 °F 58% 30.09 in 10.0 mi SE 4.6 mph - N/A   Scattered Clouds
1:17 AM 68.9 °F - 54.7 °F 60% 30.09 in 10.0 mi SE 3.5 mph - N/A   Scattered Clouds
1:35 AM 68.9 °F - 54.5 °F 60% 30.09 in 10.0 mi Calm Calm - N/A   Scattered Clouds
1:36 AM 68.9 °F - 54.5 °F 60% 30.09 in 10.0 mi Calm Calm - N/A   Scattered Clouds
1:55 AM 68.2 °F - 55.0 °F 63% 30.10 in 10.0 mi Calm Calm - N/A   Mostly Cloudy
2:15 AM 67.5 °F - 56.3 °F 67% 30.10 in 10.0 mi Calm Calm - N/A   Overcast
2:38 AM 66.7 °F - 57.6 °F 72% 30.10 in 10.0 mi SE 3.5 mph - N/A   Scattered Clouds
2:56 AM 66.9 °F - 55.4 °F 66% 30.10 in 10.0 mi Calm Calm - N/A   Scattered Clouds
3:15 AM 66.4 °F - 56.1 °F 69% 30.10 in 10.0 mi Calm Calm - N/A   Scattered Clouds
3:16 AM 66.4 °F - 56.3 °F 70% 30.10 in 10.0 mi Calm Calm - N/A   Scattered Clouds
3:35 AM 66.4 °F - 55.6 °F 68% 30.10 in 10.0 mi SE 3.5 mph - N/A   Clear
3:36 AM 66.4 °F - 55.4 °F 68% 30.10 in 10.0 mi ESE 3.5 mph - N/A   Clear
3:59 AM 66.4 °F - 54.5 °F 66% 30.10 in 10.0 mi Calm Calm - N/A   Scattered Clouds
4:17 AM 65.7 °F - 54.9 °F 68% 30.11 in 10.0 mi Calm Calm - N/A   Clear
4:35 AM 65.3 °F - 55.2 °F 70% 30.11 in 10.0 mi Calm Calm - N/A   Clear
4:55 AM 63.5 °F - 59.2 °F 86% 30.11 in 10.0 mi Calm Calm - N/A   Clear
4:56 AM 63.5 °F - 59.2 °F 86% 30.11 in 10.0 mi Calm Calm - N/A   Clear
5:15 AM 63.0 °F - 59.5 °F 89% 30.11 in 10.0 mi Calm Calm - N/A   Clear
5:20 AM 63.1 °F - 59.4 °F 87% 30.11 in 10.0 mi Calm Calm - N/A   Clear
5:38 AM 61.9 °F - 59.2 °F 91% 30.12 in 10.0 mi Calm Calm - N/A   Clear
5:56 AM 61.0 °F - 59.4 °F 94% 30.12 in 10.0 mi Calm Calm - N/A   Clear
6:15 AM 61.0 °F - 58.8 °F 93% 30.12 in 10.0 mi ESE 3.5 mph - N/A   Clear
6:35 AM 61.7 °F - 59.4 °F 92% 30.12 in 10.0 mi East 3.5 mph - N/A   Clear
6:36 AM 61.7 °F - 59.4 °F 92% 30.12 in 10.0 mi East 3.5 mph - N/A   Clear
6:59 AM 61.9 °F - 59.2 °F 91% 30.13 in 10.0 mi ESE 3.5 mph - N/A   Clear
7:17 AM 60.8 °F - 59.0 °F 94% 30.13 in 10.0 mi East 3.5 mph - N/A   Clear
7:36 AM 61.0 °F - 59.0 °F 93% 30.14 in 10.0 mi Calm Calm - N/A   Scattered Clouds
7:55 AM 59.7 °F - 58.5 °F 96% 30.14 in 10.0 mi Calm Calm - N/A   Scattered Clouds
8:15 AM 61.9 °F - 59.4 °F 91% 30.14 in 10.0 mi Calm Calm - N/A   Clear
8:20 AM 61.9 °F - 59.9 °F 93% 30.13 in 10.0 mi Calm Calm - N/A   Clear
8:38 AM 63.7 °F - 60.4 °F 89% 30.14 in 10.0 mi Calm Calm - N/A   Clear
8:56 AM 65.7 °F - 59.4 °F 80% 30.14 in 10.0 mi Calm Calm - N/A   Clear
9:15 AM 67.1 °F - 56.1 °F 68% 30.14 in 10.0 mi Calm Calm - N/A   Clear
9:16 AM 67.1 °F - 56.1 °F 68% 30.14 in 10.0 mi Calm Calm - N/A   Clear
9:35 AM 68.7 °F - 55.6 °F 63% 30.15 in 10.0 mi Calm Calm - N/A   Clear
9:59 AM 70.0 °F - 54.5 °F 58% 30.15 in 10.0 mi Calm Calm - N/A   Clear
10:17 AM 70.7 °F - 55.9 °F 59% 30.15 in 10.0 mi Calm Calm - N/A   Clear
10:55 AM 72.9 °F - 56.3 °F 56% 30.16 in 10.0 mi Calm Calm - N/A   Clear
10:56 AM 72.9 °F - 56.1 °F 56% 30.16 in 10.0 mi Calm Calm - N/A   Clear
11:15 AM 74.3 °F - 55.9 °F 53% 30.16 in 10.0 mi Calm Calm - N/A   Clear
11:20 AM 73.9 °F - 55.9 °F 53% 30.16 in 10.0 mi Calm Calm - N/A   Clear
11:38 AM 74.8 °F - 55.4 °F 51% 30.15 in 10.0 mi Calm Calm - N/A   Clear
11:56 AM 77.4 °F - 55.6 °F 47% 30.15 in 10.0 mi Calm Calm - N/A   Clear
12:15 PM 77.9 °F - 54.1 °F 44% 30.15 in 10.0 mi Calm Calm - N/A   Clear
12:16 PM 77.9 °F - 54.3 °F 44% 30.15 in 10.0 mi SW 3.5 mph - N/A   Clear
12:35 PM 78.8 °F - 53.1 °F 41% 30.15 in 7.0 mi Calm Calm - N/A   Clear
12:59 PM 79.7 °F - 49.3 °F 34% 30.14 in 10.0 mi SE 3.5 mph - N/A   Clear
1:17 PM 80.2 °F - 50.7 °F 36% 30.13 in 10.0 mi SW 4.6 mph - N/A   Clear
1:35 PM 80.6 °F 80.3 °F 53.2 °F 39% 30.13 in 10.0 mi Calm Calm - N/A   Scattered Clouds
1:36 PM 80.8 °F 80.4 °F 53.4 °F 39% 30.13 in 10.0 mi Calm Calm - N/A   Scattered Clouds
1:55 PM 81.3 °F 80.7 °F 53.6 °F 38% 30.11 in 7.0 mi South 3.5 mph - N/A   Scattered Clouds
2:15 PM 81.7 °F 81.0 °F 53.8 °F 38% 30.11 in 7.0 mi SW 3.5 mph - N/A   Clear
2:20 PM 82.2 °F 81.3 °F 53.6 °F 37% 30.11 in 7.0 mi SSW 4.6 mph - N/A   Clear
2:38 PM 82.4 °F 81.3 °F 53.1 °F 36% 30.11 in 7.0 mi SW 5.8 mph - N/A   Clear
2:56 PM 82.6 °F - 52.2 °F 35% 30.10 in 7.0 mi SSE 6.9 mph - N/A   Clear
3:15 PM 83.5 °F - 50.9 °F 32% 30.10 in 7.0 mi SW 9.2 mph - N/A   Clear
3:16 PM 83.5 °F - 50.5 °F 32% 30.10 in 7.0 mi SSW 8.1 mph - N/A   Clear
3:35 PM 83.3 °F - 52.7 °F 35% 30.10 in 10.0 mi SW 5.8 mph - N/A   Clear
3:36 PM 83.1 °F - 52.9 °F 35% 30.10 in 10.0 mi SSW 6.9 mph - N/A   Clear
3:59 PM 83.5 °F - 52.7 °F 34% 30.10 in 7.0 mi SSW 4.6 mph - N/A   Clear
4:17 PM 82.8 °F 81.6 °F 53.2 °F 36% 30.10 in 10.0 mi SSW 3.5 mph - N/A   Clear
4:35 PM 82.4 °F 81.4 °F 53.6 °F 37% 30.10 in 7.0 mi SW 5.8 mph - N/A   Scattered Clouds
4:55 PM 82.9 °F 81.8 °F 53.6 °F 36% 30.10 in 7.0 mi SW 4.6 mph - N/A   Scattered Clouds
4:56 PM 82.9 °F 81.8 °F 53.6 °F 36% 30.10 in 7.0 mi SW 4.6 mph - N/A   Scattered Clouds
5:15 PM 82.8 °F 81.9 °F 54.5 °F 38% 30.10 in 10.0 mi West 8.1 mph - N/A   Scattered Clouds
5:38 PM 81.9 °F - 52.5 °F 36% 30.10 in 10.0 mi WSW 6.9 mph - N/A   Clear
5:56 PM 80.8 °F - 50.7 °F 35% 30.11 in 10.0 mi WSW 6.9 mph - N/A   Clear
6:15 PM 78.8 °F - 50.0 °F 36% 30.11 in 10.0 mi WSW 4.6 mph - N/A   Clear
6:16 PM 78.8 °F - 50.0 °F 36% 30.11 in 10.0 mi WSW 4.6 mph - N/A   Clear
6:35 PM 78.1 °F - 52.0 °F 40% 30.11 in 10.0 mi WSW 3.5 mph - N/A   Clear
6:59 PM 77.5 °F - 54.3 °F 44% 30.12 in 10.0 mi Calm Calm - N/A   Clear
7:17 PM 75.6 °F - 56.1 °F 51% 30.12 in 10.0 mi Calm Calm - N/A   Clear
7:35 PM 73.6 °F - 57.2 °F 56% 30.12 in 10.0 mi Calm Calm - N/A   Clear
7:36 PM 73.4 °F - 57.4 °F 57% 30.12 in 10.0 mi Calm Calm - N/A   Clear
7:55 PM 72.0 °F - 57.4 °F 60% 30.12 in 10.0 mi Calm Calm - N/A   Clear
7:56 PM 71.8 °F - 57.4 °F 60% 30.12 in 10.0 mi Calm Calm - N/A   Clear
8:15 PM 69.6 °F - 58.1 °F 67% 30.12 in 10.0 mi Calm Calm - N/A   Clear
8:20 PM 68.7 °F - 57.7 °F 68% 30.12 in 10.0 mi Calm Calm - N/A   Clear
8:38 PM 69.6 °F - 57.6 °F 65% 30.12 in 10.0 mi Calm Calm - N/A   Clear
8:56 PM 67.8 °F - 62.1 °F 82% 30.12 in 10.0 mi Calm Calm - N/A   Clear
9:15 PM 66.6 °F - 63.5 °F 90% 30.12 in 10.0 mi Calm Calm - N/A   Clear
9:35 PM 66.9 °F - 64.0 °F 90% 30.13 in 10.0 mi Calm Calm - N/A   Clear
9:59 PM 66.4 °F - 63.0 °F 89% 30.14 in 10.0 mi Calm Calm - N/A   Clear
10:17 PM 66.4 °F - 63.9 °F 92% 30.13 in 10.0 mi Calm Calm - N/A   Clear
10:35 PM 66.6 °F - 64.0 °F 92% 30.13 in 10.0 mi Calm Calm - N/A   Clear
10:36 PM 66.4 °F - 64.0 °F 92% 30.13 in 10.0 mi Calm Calm - N/A   Clear
10:55 PM 65.5 °F - 64.2 °F 96% 30.13 in 10.0 mi Calm Calm - N/A   Clear
11:15 PM 64.4 °F - 62.8 °F 94% 30.13 in 10.0 mi Calm Calm - N/A   Scattered Clouds
11:38 PM 64.8 °F - 62.8 °F 93% 30.14 in 10.0 mi Calm Calm - N/A   Mostly Cloudy
11:55 PM 64.8 °F - 63.7 °F 96% 30.14 in 10.0 mi Calm Calm - N/A   Scattered Clouds